CZ-6A DEB, 60701

Orbit data source: Space-Track

CZ-6A DEB, 60701 is space debris in LEO originally from a launch on Tue, 06 Aug 2024 UTC launched from the Taiyaun Space Center, China (TSC). Debris objects in space refer to the collection of defunct objects orbiting the Earth. Examples of debris include non-operational satellites, rocket bodies, and fragments generated from explosions, collisions, or faulty payload assembly.

Loading next visibility...
Identifier
60701, 2024-140DE
Orbit
LEO
Country
Flag of CNCN / PRC
Related business
Manufacturer
SAST
Mission
Spacecraft
Bus & Motor
Unknown
Mass
Unknown
Launch date (UTC)
2024-08-06 (2 years ago)
Launch vehicle
Unknown
Launch site
Taiyaun Space Center, China (TSC)
Object type
Payload
Rocket body
Debris
Shape & HBR
Unknown shape, 0.2 m
Radar Cross Section
Medium (>0.1 m² and <1 m²)

Expand to show TLE details & history
Last TLE update: 11 hours ago

TLE from 11 hours ago
0 CZ-6A DEB
1 60701U 24140DE  26171.39872044  .00001067  00000-0  46580-3 0  9999
2 60701  89.3590 302.8552 0088912 229.9720 129.3646 14.21215123 96147
Epoch: 2026-06-20T09:34Z
TLE epoch observation values (Epoch: 2026-06-20T09:34:09.446Z)
Latitude
0.00001°
Longitude
-109.29807°
Altitude
865.247 km
Speed
7.399 km/s
True Right ascension
20h 11m 25s
True Declination
0° 00' 00"
Sunlit
Object was in full shadow at epoch
Visualization orbit readout
Latitude
Unknown
Longitude
Unknown
Altitude
Unknown
Speed
Unknown
Apparent Right ascension
Unknown
Apparent Declination
Unknown
Sunlit
N/A
Visualization observer readout
Local Sidereal Time
07:19:45
Azimuth
Unknown
Elevation
Unknown
Doppler factor
Unknown
Orbital elements
Apogee altitude
882.178 km
Perigee altitude
754.21 km
Semi-major axis
7,196.331 km
Eccentricity
0.00889
Inclination
89.359°
RAAN
302.8552°
Arg. of periapsis
229.972°
True anomaly
130.14676°
Mean anomaly
129.3646°
Eccentric anomaly
129.75623°
Mean motion
3.5553 °/min
Orbital period
101.26 mins
BSTAR
0.0004658
Loading maneuver chart data...
Computing Atmospheric mass density...
Loading historical data...
Loading historical data...
Loading historical data...
Loading historical data...
Loading historical data...
Loading historical data...
Loading historical data...

Documentation

Showing up to 5 results
|